Weather Roundup
Issued by NWS

Home | Current Version | Previous Version | Text Only | Print | Product List | Glossary On
Versions: 1 2 3 4 5 6 7 8 9 10 11 12 13 14 15 16 17 18 19 20 21 22 23 24 25 26 27 28 29 30 31 32 33 34 35 36 37 38 39 40 41 42 43 44 45 46 47 48 49 50
000
NZUS93 KARX 260510
HRRWXR

CURRENT HOURLY OBSERVATIONS ACROSS
MUCH OF THE UPPER MISSISSIPPI VALLEY
NATIONAL WEATHER SERVICE LA CROSSE WI
1200 AM CDT WED JUL 26 2017


...SOUTHEAST MINNESOTA...


CITY           SKY/WX    TMP DP  RH WIND       PRES   REMARKS
ROCHESTER      CLOUDY    73  69  87 S14       30.03R
ROCHESTER/MAYO FAIR      75  69  82 S9G18     30.02R
WINONA         CLOUDY    73  66  78 SW5       29.99R
AUSTIN         CLOUDY    73  68  83 S8        30.02R
ALBERT LEA     CLOUDY    77  70  78 S8        30.01R
DODGE CENTER   CLOUDY    73  68  83 S14G21    30.02R
PRESTON        CLOUDY    72  67  83 S14       30.04R
OWATONNA       CLOUDY    75  70  83 S8        30.01R
FARIBAULT      CLOUDY    75  72  88 S5        30.00R
$$

...ELSEWHERE IN MINNESOTA...


CITY           SKY/WX    TMP DP  RH WIND       PRES   REMARKS
MINNEAPOLIS    CLOUDY    78  72  81 W7        29.98R
INTNL FALLS    CLOUDY    63  58  83 W6        29.91R
DULUTH         CLOUDY    70  68  93 SW13      29.97R
RED WING       CLOUDY    79  66  65 W5        29.97R
REDWOOD FALLS  CLOUDY    73  70  90 W3        29.96F
MANKATO        LGT RAIN  77  74  90 SW8       30.01R
WORTHINGTON    CLOUDY    74  73  97 E3        30.02F
FAIRMONT       CLOUDY    77  74  90 S7        30.01R
$$

...SOUTHWEST WISCONSIN...


CITY           SKY/WX    TMP DP  RH WIND       PRES   REMARKS
LA CROSSE      CLOUDY    77  69  76 S16       29.99R
PRAIRIE DU CHI CLOUDY    74  65  75 E3        30.03S
BOSCOBEL       CLOUDY    74  67  78 SW6       30.04F
LONE ROCK      CLOUDY    72  67  84 S7        30.06S
PLATTEVILLE    CLOUDY    70  69  98 S8        30.08S
FORT MC COY    MOCLDY    72  66  83 S6        30.03R
CAMP DOUGLAS   MOCLDY    70  66  88 S8        30.02F
MAUSTON-NEW LI MOCLDY    71  66  85 S7        30.03S
VIROQUA        FAIR      71  69  93 S7G16     30.05R
WIS DELLS      CLOUDY    69  63  80 S6        30.07R
$$

...ELSEWHERE IN WISCONSIN...


CITY           SKY/WX    TMP DP  RH WIND       PRES   REMARKS
MILWAUKEE      MOCLDY    70  62  76 S7        30.11F
MADISON        CLOUDY    71  61  70 S10       30.07F
GREEN BAY      MOCLDY    68  62  81 S12       30.06F
EAU CLAIRE     CLOUDY    72  67  84 S6        30.00R
BLACK RVR FLS  FAIR      71  67  87 CALM      30.01R
MEDFORD        CLOUDY    68  64  88 S8        30.03S
WAUSAU         CLOUDY    69  64  84 SE10      30.03R
WIS RAPIDS     MOCLDY    70  64  81 S6        30.06R
MARSHFIELD     CLOUDY    68  64  87 S6        30.04R
RICE LAKE      CLOUDY    71  67  87 CALM      30.03R
$$

...NORTHEAST IOWA...


CITY           SKY/WX    TMP DP  RH WIND       PRES   REMARKS
WATERLOO       NOT AVBL
DUBUQUE        CLOUDY    69  66  90 S8        30.08S
DECORAH        CLOUDY    73  68  83 S10G18    30.03R
MASON CITY     CLOUDY    73  69  87 S7        30.04R
CHARLES CITY   CLOUDY    73  72  94 S9        30.04R
OELWEIN        MOCLDY    72  70  94 SE12      30.06R
$$

...ELSEWHERE IN IOWA...


CITY           SKY/WX    TMP DP  RH WIND       PRES   REMARKS
DES MOINES     CLOUDY    80  73  79 SE8       30.02R
IOWA CITY      NOT AVBL
FORT DODGE     CLOUDY    81  72  74 S8G16     30.03R
MARSHALLTOWN   CLOUDY    75  70  84 S8        30.04R
CEDAR RAPIDS   NOT AVBL
$$

...NORTHERN ILLINOIS...


CITY           SKY/WX    TMP DP  RH WIND       PRES   REMARKS
CHICAGO-OHARE  PTCLDY    70  58  65 S8        30.11F
CHICAGO-MIDWAY MOCLDY    73  58  59 S10       30.12F
MOLINE         MOCLDY    72  66  81 SE5       30.07S
ROCKFORD       CLOUDY    69  61  75 S7        30.11F
PEORIA         CLOUDY    73  67  81 SE8       30.10S
$$

NOTE: "FAIR" INDICATES FEW OR NO CLOUDS BELOW 12,000 FEET WITH NO
SIGNIFICANT WEATHER AND/OR OBSTRUCTIONS TO VISIBILITY. WIND
SPEEDS ARE IN MILES-PER-HOUR.




USA.gov is the U.S. government's official web portal to all federal, state and local government web resources and services.